Regional Weather Roundup
Issued by NWS

Home | Current Version | Previous Version | Text Only | Print | Product List | Glossary On
Versions: 1 2 3 4 5 6 7 8 9 10 11 12 13 14 15 16 17 18 19 20 21 22 23 24 25 26 27 28 29 30 31 32 33 34 35 36 37 38 39 40 41 42 43 44 45 46 47 48 49 50
000
ASUS44 KBMX 051410
RWRAL

ALABAMA REGIONAL WEATHER ROUNDUP
NATIONAL WEATHER SERVICE BIRMINGHAM AL
900 AM CDT THU MAY 05 2016

NOTE: "FAIR" INDICATES FEW OR NO CLOUDS BELOW 12,000 FEET
WITH NO SIGNIFICANT WEATHER AND/OR OBSTRUCTIONS TO VISIBILITY.

THE REMARK "TC" DENOTES TEMPERATURE IN DEGREES CELSIUS.

ALZ001>011-014-016>018-020-051500-
NORTH ALABAMA

CITY           SKY/WX    TMP DP  RH WIND       PRES   REMARKS
MUSCLE SHOALS  SUNNY     58  44  60 W14       29.89S
HUNTSVILLE     MOSUNNY   58  47  66 NW7       29.87R
DECATUR        SUNNY     57  46  66 W14       29.87S
HALEYVILLE     FAIR      55  45  68 W9        29.91S
GADSDEN        SUNNY     57  47  69 NW6       29.87R
$$

ALZ012-013-022-023-030>036-040>044-051500-
WEST CENTRAL ALABAMA

CITY           SKY/WX    TMP DP  RH WIND       PRES   REMARKS
TUSCALOOSA     SUNNY     60  48  64 W7        29.93R
$$

ALZ015-024>027-033>036-040>044-051500-
CENTRAL ALABAMA

CITY           SKY/WX    TMP DP  RH WIND       PRES   REMARKS
BIRMINGHAM     SUNNY     57  48  72 W9        29.91R
MONTGOMERY     SUNNY     64  43  46 NW10      29.91R
SHELBY CO ARPT SUNNY     58  45  62 VRB6      29.90R
MAXWELL AFB    SUNNY     62  45  53 NW8       29.90R
GREENVILLE     FAIR      63  37  38 N10       29.91R
$$

ALZ019-021-028-029-037-038-045>048-051500-
EAST CENTRAL ALABAMA

CITY           SKY/WX    TMP DP  RH WIND       PRES   REMARKS
ANNISTON       SUNNY     57  44  62 W7        29.87R
ALEXANDER CITY SUNNY     57  52  82 W8        29.89R
AUBURN         SUNNY     57  44  62 NW13G20   29.87R
$$

ALZ051>064-051500-
SOUTHWEST ALABAMA

CITY           SKY/WX    TMP DP  RH WIND       PRES   REMARKS
MOBILE         SUNNY     67  57  70 N9        29.93R
BROOKLEY FIELD SUNNY     67  56  67 N12       29.94R
EVERGREEN      SUNNY     65  43  44 N8        29.93R
$$

ALZ049-050-065>069-051500-
SOUTHEAST ALABAMA

CITY           SKY/WX    TMP DP  RH WIND       PRES   REMARKS
DOTHAN         SUNNY     65  42  43 N17       29.90R
OZARK          SUNNY     66  45  46 NW10      29.88R
TROY           SUNNY     63  44  50 NW12      29.90R
EUFAULA        FAIR      64  45  49 NW10      29.86R
$$



USA.gov is the U.S. government's official web portal to all federal, state and local government web resources and services.